Regional Weather Roundup
Issued by NWS

Home | Current Version | Previous Version | Text Only | Print | Product List | Glossary On
Versions: 1 2 3 4 5 6 7 8 9 10 11 12 13 14 15 16 17 18 19 20 21 22 23 24 25 26 27 28 29 30 31 32 33 34 35 36 37 38 39 40 41 42 43 44 45 46 47 48 49 50
000
ASUS44 KFWD 211810
RWRTX
NORTH TEXAS HOURLY WEATHER ROUNDUP
NATIONAL WEATHER SERVICE FORT WORTH TX
100 PM CDT THU AUG 21 2014

NOTE: "FAIR" INDICATES FEW OR NO CLOUDS BELOW 12,000 FEET WITH NO
SIGNIFICANT WEATHER AND/OR OBSTRUCTIONS TO VISIBILITY.

TXZ118-119-211900-
DALLAS/FORT WORTH METROPLEX

CITY           SKY/WX    TMP DP  RH WIND       PRES   REMARKS
DFW AIRPORT    PTSUNNY   93  71  48 S14       30.01F HX 100
6HR MIN TEMP:  79; 6HR MAX TEMP:  93;

DALLAS LOVE    MOSUNNY   92  69  47 SW14      30.01F HX  97
6HR MIN TEMP:  78; 6HR MAX TEMP:  93;

FTW MEACHAM    PTSUNNY   95  71  45 S18G24    30.00F HX 102
6HR MIN TEMP:  79; 6HR MAX TEMP:  95;

DAL-EXECUTIVE  MOSUNNY   95  67  39 S8G22     30.02F HX  99
6HR MIN TEMP:  78; 6HR MAX TEMP:  95;

FTW-ALLIANCE   PTSUNNY   94  71  47 S14G22    30.00F HX 101
6HR MIN TEMP:  78; 6HR MAX TEMP:  94;

FTW-NAS-JRB    MOSUNNY   98  68  37 SW18      30.04F HX 103
6HR MIN TEMP:  81; 6HR MAX TEMP:  98;

FTW-SPINKS     MOSUNNY   93  70  46 S12       30.03F HX  99
ARLINGTON      MOSUNNY   91  69  48 S12G28    30.01F HX  96
6HR MIN TEMP:  78; 6HR MAX TEMP:  93;

GRAND PRAIRIE  MOSUNNY   91  68  46 S12G21    30.03F HX  95
ADDISON        PTSUNNY   91  68  46 S16G22    30.03F HX  95
MESQUITE       MOSUNNY   93  66  40 S15G26    30.03F HX  96
LANCASTER      MOSUNNY   94  66  39 SW13G21   30.03F HX  97
6HR MIN TEMP:  75; 6HR MAX TEMP:  94;

$$

TXZ091>094-102>105-117-120-121-131>134-211900-
NORTH CENTRAL TEXAS

CITY           SKY/WX    TMP DP  RH WIND       PRES   REMARKS
SHRMAN/DENISON PTSUNNY   90  71  52 S20       30.03F HX  96
6HR MIN TEMP:  76; 6HR MAX TEMP:  91;

GAINESVILLE    MOSUNNY   89  73  59 SE14G23   30.03F HX  96
6HR MIN TEMP:  75; 6HR MAX TEMP:  89;

BOWIE          SUNNY     92  72  52 SE15      30.00F HX  99
6HR MIN TEMP:  76; 6HR MAX TEMP:  92;

BRIDGEPORT     MOSUNNY   93  67  42 S12G18    30.01F HX  97
6HR MIN TEMP:  78; 6HR MAX TEMP:  93;

DECATUR        MOSUNNY   90  70  51 S13       30.01F HX  95
6HR MIN TEMP:  76; 6HR MAX TEMP:  91;

DENTON         PTSUNNY   91  71  51 S15G24    30.01F HX  97
6HR MIN TEMP:  77; 6HR MAX TEMP:  91;

MCKINNEY       CLOUDY    90  71  53 S14       30.02F HX  96
6HR MIN TEMP:  78; 6HR MAX TEMP:  91;

GREENVILLE     MOSUNNY   95  66  38 S17       30.03F HX  98
ROCKWALL       PTSUNNY   92  71  50 S18G24    30.02F HX  99
6HR MIN TEMP:  76; 6HR MAX TEMP:  92;

TERRELL        SUNNY     96  65  35 S18G31    30.03F HX  98
6HR MIN TEMP:  78; 6HR MAX TEMP:  96;

WAXAHACHIE     SUNNY     93  63  36 S16G26    30.03F HX  94
6HR MIN TEMP:  75; 6HR MAX TEMP:  93;

CLEBURNE       SUNNY     93  70  46 S14       30.03F HX  99
GRANBURY       MOSUNNY   95  68  41 S16G23    30.01F HX 100
6HR MIN TEMP:  80; 6HR MAX TEMP:  95;

$$

TXZ083>090-098>101-113>116-127>130-139>142-154-155-211900-
WESTERN NORTH TEXAS

CITY           SKY/WX    TMP DP  RH WIND       PRES   REMARKS
WICHITA FALLS  SUNNY     96  70  42 S20       29.95F HX 102
6HR MIN TEMP:  78; 6HR MAX TEMP:  97;

WF-KICKAPOO    SUNNY     97  65  35 S13G18    29.97F HX 100
6HR MIN TEMP:  77; 6HR MAX TEMP:  97;

VERNON         SUNNY     98  65  34 S21G29    29.95F HX 100
6HR MIN TEMP:  80; 6HR MAX TEMP: 102;

ABILENE        SUNNY     92  70  48 S21       30.01F HX  97
6HR MIN TEMP:  76; 6HR MAX TEMP:  92;

ABILENE-DYESS  MOSUNNY   91  71  50 S17G28    29.99F HX  98
6HR MIN TEMP:  76; 6HR MAX TEMP:  91;

BRECKENRIDGE   MOSUNNY   96  67  37 S17       29.98F HAZE    HX 100
6HR MIN TEMP:  79; 6HR MAX TEMP:  97;

GRAHAM         MOSUNNY   97  67  37 S10G16    29.96F HX 101
6HR MIN TEMP:  79; 6HR MAX TEMP:  97;

MINERAL WELLS  MOSUNNY   93  72  50 SE12G22   29.99F HX 101
6HR MIN TEMP:  77; 6HR MAX TEMP:  93;

STEPHENVILLE   MOSUNNY   92  67  42 SW13G20   30.05F HX  95
6HR MIN TEMP:  75; 6HR MAX TEMP:  92;

COMANCHE       MOSUNNY   93  66  40 S15G23    30.03F HX  96
6HR MIN TEMP:  75; 6HR MAX TEMP:  94;

BROWNWOOD      SUNNY     93  66  40 S15G26    30.02F HX  96
COLEMAN        SUNNY     89  70  52 S17G24    30.03F HX  94
6HR MIN TEMP:  74; 6HR MAX TEMP:  89;

BRADY          SUNNY     90  64  43 S13       30.04F HX  91
$$

TXZ143>147-156>162-174-175-211900-
CENTRAL TEXAS

CITY           SKY/WX    TMP DP  RH WIND       PRES   REMARKS
WACO           SUNNY     96  66  37 S18       30.03F HX  99
6HR MIN TEMP:  78; 6HR MAX TEMP:  96;

WACO-TSTC      SUNNY     95  63  34 SW15      30.03F HX  96
WACO-MCGREGOR  SUNNY     97  64  34 S20G30    30.03F HX  99
6HR MIN TEMP:  77; 6HR MAX TEMP:  97;

HILLSBORO      SUNNY     94  64  37 S17G24    30.03F HX  96
6HR MIN TEMP:  77; 6HR MAX TEMP:  94;

CORSICANA      SUNNY     96  63  33 S21G26    30.04F HX  97
6HR MIN TEMP:  77; 6HR MAX TEMP:  96;

MEXIA          SUNNY     94  66  40 S14G22    30.04S HX  97
6HR MIN TEMP:  75; 6HR MAX TEMP:  94;

HEARNE           N/A     96  67  37 S16       30.04F HX 100
6HR MIN TEMP:  79; 6HR MAX TEMP:  96;

CAMERON        SUNNY     97  67  37 S16G22    30.04F HX 101
6HR MIN TEMP:  80; 6HR MAX TEMP:  97;

TEMPLE         SUNNY     97  64  34 S21G30    30.03F HX  99
6HR MIN TEMP:  77; 6HR MAX TEMP:  97;

KILLEEN        MOSUNNY   93  64  38 S15G29    30.03F HX  95
KILLEEN-SKYLRK SUNNY     97  64  34 S16G23    30.04F HX  99
6HR MIN TEMP:  79; 6HR MAX TEMP:  97;

FORT HOOD      SUNNY     96  65  35 S17G24    30.03F HX  98
6HR MIN TEMP:  80; 6HR MAX TEMP:  96;

GATESVILLE     SUNNY     93  64  38 S15G23    30.05F HX  95
HAMILTON       SUNNY     95  62  34 S14G25    30.05F HX  95
6HR MIN TEMP:  76; 6HR MAX TEMP:  95;

LAMPASAS       SUNNY     96  66  36 S12G22    30.04F HX  99
6HR MIN TEMP:  76; 6HR MAX TEMP:  96;

$$

TXZ095>097-106>112-122>126-135>138-148>153-164>167-211900-
EAST TEXAS

CITY           SKY/WX    TMP DP  RH WIND       PRES   REMARKS
PARIS          PTSUNNY   90  70  51 SW15G23   30.06F HX  95
6HR MIN TEMP:  73; 6HR MAX TEMP:  90;

SULPHUR SPRNGS MOSUNNY   93  69  44 SW16      30.07F HX  97
6HR MIN TEMP:  76; 6HR MAX TEMP:  93;

CLARKSVILLE    SUNNY     91  72  53 S9        30.06F HX  99
6HR MIN TEMP:  73; 6HR MAX TEMP:  91;

MOUNT PLEASANT MOSUNNY   91  71  51 S13G18    30.08F HX  97
6HR MIN TEMP:  72; 6HR MAX TEMP:  92;

GILMER         SUNNY     91  73  55 S10       30.09F HX 100
MINEOLA        MOSUNNY   91  72  52 S8G17     30.07F HX  98
TYLER          MOSUNNY   93  72  50 S12G22    30.07F HX 101
6HR MIN TEMP:  77; 6HR MAX TEMP:  93;

LONGVIEW       PTSUNNY   92  73  53 SW12      30.07F HX 100
6HR MIN TEMP:  77; 6HR MAX TEMP:  93;

MARSHALL       MOSUNNY   94  76  57 SW7       30.10F HX 106
6HR MIN TEMP:  78; 6HR MAX TEMP:  94;

ATHENS         SUNNY     90  72  55 S13G18    30.05F HX  96
PALESTINE      MOSUNNY   92  73  53 SE9       30.07F HX 100
JACKSONVILLE   MOSUNNY   90  73  57 S7        30.11S HX  97
HENDERSON      PTSUNNY   90  73  56 S6        30.09F HX  98
6HR MIN TEMP:  75; 6HR MAX TEMP:  91;

NACOGDOCHES    PTSUNNY   90  75  62 S9        30.09F HX 100
6HR MIN TEMP:  75; 6HR MAX TEMP:  91;

LUFKIN         MOSUNNY   94  76  55 S8        30.08F HX 106
6HR MIN TEMP:  78; 6HR MAX TEMP:  95;

$$

SUPPLEMENTAL OBSERVATIONS (CENTRAL)

CITY           SKY/WX    TMP DP  RH WIND       PRES   REMARKS
CADDO GRASSLND   N/A     90  72  55 S13         N/A  HX  96
PAT MAYSE LAKE   N/A     88  73  62 S16         N/A  HX  96
GREENVILLE       N/A     91  70  49 S12G22      N/A  HX  97
CEDAR HILL       N/A     93  68  43 S10         N/A  HX  97
PALESTINE        N/A     93  70  46 S9G17       N/A  HX  99
MCGREGOR         N/A     97  63  32 S15G24      N/A  HX  98
TEMPLE           N/A     95  64  36 S20G28      N/A  HX  97



USA.gov is the U.S. government's official web portal to all federal, state and local government web resources and services.